Regional Weather Roundup
Issued by NWS

Home | Current Version | Previous Version | Text Only | Print | Product List | Glossary Off
Versions: 1 2 3 4 5 6 7 8 9 10 11 12 13 14 15 16 17 18 19 20 21 22 23 24 25 26 27 28 29 30 31 32 33 34 35 36 37 38 39 40 41 42 43 44 45 46 47 48 49 50

000
ASUS43 KDTX 202001
RWRMI
MICHIGAN HOURLY REGIONAL WEATHER ROUNDUP
NATIONAL WEATHER SERVICE DETROIT/PONTIAC MI
400 PM EDT FRI OCT 20 2017

NOTE: "FAIR" INDICATES FEW OR NO CLOUDS BELOW 12,000 FEET WITH NO
SIGNIFICANT WEATHER AND/OR OBSTRUCTION TO VISIBILITY.

MIZ047>049-052>055-059>063-066>070-074>076-081>083-202100-
SOUTHEAST LOWER MICHIGAN

CITY           SKY/WX    TMP DP  RH WIND       PRES   REMARKS
ADRIAN         SUNNY     75  47  36 SW12      30.18F
ALMA           SUNNY     77  44  31 S18G26    30.12S
ANN ARBOR      SUNNY     74  47  38 S10       30.17F
BAD AXE        SUNNY     75  44  33 SW17      30.12F
CARO           SUNNY     75  48  38 S16       30.12F
DETROIT CITY   SUNNY     69  42  37 S12       30.19F
DETROIT        MOSUNNY   71  45  39 SE8       30.19F
FLINT          SUNNY     74  47  38 S12G20    30.15F
GROSSE ILE     SUNNY     66  47  49 SE8       30.19F
HILLSDALE      SUNNY     73  48  40 S6        30.17F
HOWELL         SUNNY     74  45  35 S10       30.16F

CITY           SKY/WX    TMP DP  RH WIND       PRES   REMARKS
JACKSON        SUNNY     74  50  42 S10       30.17F
LAMBERTVILLE   SUNNY     77  45  31 SW7       30.18F
LANSING        SUNNY     76  49  38 S15       30.15F
LAPEER         FAIR      72  45  38 S13G18    30.16F
MASON          SUNNY     76  48  36 SW6       30.15F
MONROE         SUNNY     73  44  35 SE9       30.18F
MT. CLEMENS    MOSUNNY   68  47  47 S15       30.17F
PONTIAC        MOSUNNY   71  46  40 S9        30.16F
PORT HOPE        N/A     77  48  35 SW7G22    30.09F
PORT HURON     SUNNY     70  43  37 S7        30.18F
TRI CITIES     SUNNY     77  50  38 SW21      30.12F
MIDLAND        FAIR      78  50  37 S13G18    30.09F
TROY           SUNNY     71  39  31 SE6       30.20F
SAGINAW HB     SUNNY     75  48  38 S15       30.11F
$$
MIZ043>046-050>051-056>058-064>065-071>073-077>080-202100-
SOUTHWEST LOWER MICHIGAN

CITY           SKY/WX    TMP DP  RH WIND       PRES   REMARKS
BATTLE CREEK   SUNNY     75  52  44 S16       30.15F
BENTON HARBOR  SUNNY     78  49  35 S8        30.11F
BIG RAPIDS     SUNNY     76  44  32 SW10G22   30.09F
COLDWATER      SUNNY     75  47  37 SW7       30.16F
FREMONT        FAIR      75  50  41 S12       30.09F
HOLLAND        SUNNY     77  49  37 SW14      30.11F
GRAND RAPIDS   PTSUNNY   78  50  37 SW14      30.12F
IONIA          FAIR      77  48  36 S12G21    30.12F
KALAMAZOO      SUNNY     76  49  38 SW13      30.13F
LUDINGTON      SUNNY     71  54  55 S9        30.06F
MARSHALL       SUNNY     75  50  40 S8        30.15F
MOUNT PLEASANT SUNNY     78  47  33 SW10      30.09F
MUSKEGON       PTSUNNY   72  51  47 S14       30.11F
SOUTH HAVEN    SUNNY     77  47  34 S7        30.11F
$$
MIZ016>042-202100-
NORTHERN LOWER MICHIGAN

CITY           SKY/WX    TMP DP  RH WIND       PRES   REMARKS
ALPENA         SUNNY     78  50  37 W12G20    30.04
BEAVER ISLAND  SUNNY     69  54  59 SW14G22   30.00S
BELLAIRE       SUNNY     77  48  36 S10G21    30.02F
CADILLAC       SUNNY     77  46  34 SW16      30.07F
CHARLEVOIX     SUNNY     75  52  43 SW14G20   30.03F
FRANKFORT      SUNNY     70  53  53 S9G18     30.04F
GAYLORD        SUNNY     75  47  36 SW17      30.05F
GRAYLING       SUNNY     75  46  34 SW10G16   30.07S
HARBOR SPRINGS SUNNY     73  51  45 SW10G17   30.01F
HOUGHTON LAKE  SUNNY     74  49  41 SW12      30.08F
MANISTEE       SUNNY     76  52  43 S7        30.04F
OSCODA         SUNNY     74  48  39 S12G23    30.07F
PELLSTON       SUNNY     76  51  41 SW17G24   30.01F
ROGERS CITY    SUNNY     77  49  37 SW14G21   30.02F
TRAVERSE CITY  PTSUNNY   78  50  37 SW10G20   30.01F
$$
MIZ007>008-015-202100-
EASTERN UPPER MICHIGAN

CITY           SKY/WX    TMP DP  RH WIND       PRES   REMARKS
KINROSS        SUNNY     70  52  52 SW12      30.00F
MACKINAC ISLAN SUNNY     70  51  50 SW10G16   30.00F
NEWBERRY       SUNNY     67  54  64 S18       29.97F
S. S. MARIE    SUNNY     71  53  52 S14       29.99S
MUNISING         N/A     74  54  49 S10G23    29.90F
$$
MIZ004>006-011>014-085-202100-
CENTRAL UPPER MICHIGAN

CITY           SKY/WX    TMP DP  RH WIND       PRES   REMARKS
MANISTIQUE     SUNNY     61  55  81 S9        29.98F
ESCANABA       SUNNY     66  54  65 S13G18    29.95F
MENOMINEE      SUNNY     74  51  44 SW15G22   29.96F
SAWYER-GWINN   SUNNY     75  48  38 SW14      29.91F
$$
MIZ001>003-009>011-084-202100-
WESTERN UPPER MICHIGAN

CITY           SKY/WX    TMP DP  RH WIND       PRES   REMARKS
IRON MOUNTAIN  SUNNY     76  45  33 S15       29.92F
HOUGHTON       SUNNY     81  41  24 S14       29.82F
COPPER HARBOR    N/A     70  47  43 VRB6      29.82F
IRONWOOD       SUNNY     78  41  26 S14G22    29.82F
$$

ABBREVIATIONS USED IN REMARKS
   TC - TEMPERATURE IN CELSIUS
  WCI - WIND CHILL INDEX
   HX - HEAT INDEX
  VSB - VISIBILITY





USA.gov is the U.S. government's official web portal to all federal, state and local government web resources and services.